Find Starlink 32400

NORAD ID: 61669 Int'l Des: 2024-193 Owner: SPXS Country: US Constellation: starlink operational
LEOCIRCULAR

Current View

Loading 3D Globe...

About Starlink 32400

Starlink 32400 (NORAD 61669) is a starlink constellation satellite (v2 mini) launched Oct 26, 2024 by SPXS of US. It operates in LEO, CIRCULAR orbit with a mass of 730.00 kg.

About Starlink 32400

Description loading...

Upcoming Passes

Passes for default location (London). Set your location on the main map for personalized predictions.

Altitude History

Loading altitude history...

Two-Line Element Set

1 61669U 24193J 26168.20157589 .00015989 00000-0 55201-3 0 9995
2 61669 53.1619 346.5655 0001583 104.1635 255.9541 15.30129127 91794
Epoch: Jun 17, 2026 • Age: 17 hours

Current Status

Altitude 476.7 km
Velocity 7.63 km/s
Sub-Earth Point 30.08°N, 128.84°E
Launch Date Oct 26, 2024
Age 1.6 years
Type internet

Technical Details

Classification Payload
Mass 730.00 kg
Dry Mass 700.00 kg
Total Mass 730.00 kg
Length 0.30 m
Diameter 4.10 m
Span 29.00 m
Shape Box + pan
Manufacturer SPXS
Bus Type Starlink V2M
Phase Status In Orbit
Owner/State SPXS/US

Most Searched